Gildeskaal — LLDI — position and weather

sailwx.info

Track history (hours):
 
Tides and Currents Weather Stations Pressure Air Temp Water Temp Dewpoint Dewpoint Depression Visibility Wind Speed Wind Dir Waves Ship Positions

Gildeskaal

Last reported at 2014-Jul-23 19:33 UTC. Time now 2014-Jul-23 19:46 UTC.
Position N 67°08' E 013°59'.

Length 52 m; draft 3.2 m.

Type: Ship. MMSI: 259680000.

Date/timePositionNaut miles runAvg speedWind from/ knotsBaromVisibWave heightAir tempDewpointWater temp
2014-Jul-23 19:33N 67°08' E 013°59'3 2.3
2014-Jul-23 18:12N 67°05' E 014°00'2 2.3
2014-Jul-23 17:31N 67°07' E 013°59'2 1.5
2014-Jul-23 16:31N 67°05' E 013°60'3 3.1
2014-Jul-23 15:33N 67°08' E 013°59'3 1.4
2014-Jul-23 13:22N 67°05' E 013°60'3 1.6
2014-Jul-23 11:29N 67°08' E 013°59'1 0.4
2014-Jul-23 09:33N 67°07' E 013°59'1 0.8
2014-Jul-23 08:33N 67°08' E 013°59'1 1.3
2014-Jul-23 07:33N 67°07' E 013°59'2 0.9
2014-Jul-23 05:28N 67°05' E 014°00'3 3.2
2014-Jul-23 04:31N 67°08' E 013°59'0 0.0
2014-Jul-23 03:33N 67°08' E 013°59'0 0.0
2014-Jul-23 02:33N 67°08' E 013°59'0 0.0
2014-Jul-23 01:33N 67°08' E 013°59'0 0.0
2014-Jul-23 00:33N 67°08' E 013°59'0 0.0
2014-Jul-22 23:30N 67°08' E 013°59'0 0.0
2014-Jul-22 22:33N 67°08' E 013°59'0 0.0
2014-Jul-22 21:33N 67°08' E 013°59'0 0.0
2014-Jul-22 20:33N 67°08' E 013°59'0 0.0
2014-Jul-22 19:26N 67°08' E 013°59'3 2.6
2014-Jul-22 18:15N 67°05' E 013°60'1 1.7
2014-Jul-22 17:33N 67°06' E 013°58'1 1.2
2014-Jul-22 16:32N 67°05' E 014°00'3 2.5
2014-Jul-22 15:17N 67°08' E 013°59'3 1.6
2014-Jul-22 13:23N 67°05' E 014°00'3 3.7
2014-Jul-22 12:33N 67°08' E 013°59'0 0.0
2014-Jul-22 11:33N 67°08' E 013°59'3 2.8
2014-Jul-22 10:30N 67°05' E 013°60'1 0.7
2014-Jul-22 09:33N 67°06' E 013°59'3 2.6
2014-Jul-22 08:33N 67°08' E 013°59'1 1.2
2014-Jul-22 07:33N 67°07' E 013°59'2 0.8
2014-Jul-22 05:22N 67°05' E 013°60'3 3.5
2014-Jul-22 04:29N 67°08' E 013°59'0 0.0
2014-Jul-22 03:31N 67°08' E 013°59'0 0.0
2014-Jul-22 02:31N 67°08' E 013°59'0 0.0
2014-Jul-22 01:33N 67°08' E 013°59'0 0.0
2014-Jul-22 00:33N 67°08' E 013°59'0 0.0
2014-Jul-21 23:33N 67°08' E 013°59'0 0.0
2014-Jul-21 22:33N 67°08' E 013°59'0 0.0
2014-Jul-21 21:33N 67°08' E 013°59'0 0.0
2014-Jul-21 20:33N 67°08' E 013°59'0 0.0
2014-Jul-21 20:18N 67°08' E 013°59'0 0.0
2014-Jul-21 19:33N 67°08' E 013°59'2 1.5
2014-Jul-21 18:10N 67°06' E 013°58'0 0.5
2014-Jul-21 17:32N 67°07' E 013°58'1 0.7
2014-Jul-21 16:27N 67°06' E 013°58'2 2.7
2014-Jul-21 15:33N 67°08' E 013°59'3 1.2
2014-Jul-21 13:07N 67°05' E 013°60'2 3.8
2014-Jul-21 12:33N 67°07' E 013°59'2 0.5
2014-Jul-21 09:32N 67°06' E 013°59'2 2.5
2014-Jul-21 08:32N 67°08' E 013°59'2 1.6
2014-Jul-21 07:30N 67°07' E 013°59'1 0.7
2014-Jul-21 05:24N 67°05' E 014°00'3 3.6
2014-Jul-21 04:33N 67°08' E 013°59'0 0.0
2014-Jul-21 03:32N 67°08' E 013°59'0 0.0
2014-Jul-21 02:25N 67°08' E 013°59'0 0.0
2014-Jul-21 01:30N 67°08' E 013°59'0 0.0
2014-Jul-21 00:33N 67°08' E 013°59'0 0.0
2014-Jul-20 23:27N 67°08' E 013°59'0 0.0
2014-Jul-20 22:28N 67°08' E 013°59'0 0.0
2014-Jul-20 21:09N 67°08' E 013°59'0 0.0
2014-Jul-20 20:31N 67°08' E 013°59'0 0.0
2014-Jul-20 19:32N 67°08' E 013°59'2 0.9
2014-Jul-20 17:10N 67°06' E 013°58'1 0.9
2014-Jul-20 16:32N 67°07' E 013°59'2 0.8
2014-Jul-20 14:33N 67°08' E 013°59'2 1.7
2014-Jul-20 13:33N 67°06' E 013°59'0 0.1
2014-Jul-20 08:05N 67°06' E 013°59'1 1.4
2014-Jul-20 07:32N 67°07' E 013°59'1 0.1
2014-Jul-19 17:26N 67°06' E 013°59'1 1.0
2014-Jul-19 16:30N 67°07' E 013°59'1 0.8
2014-Jul-19 15:27N 67°06' E 013°59'1 0.2
2014-Jul-19 09:23N 67°07' E 013°59'0 0.2
2014-Jul-19 07:33N 67°07' E 013°59'2 2.1
2014-Jul-19 06:28N 67°05' E 014°02'3 2.7
2014-Jul-19 05:10N 67°08' E 013°59'0 0.0
2014-Jul-19 04:22N 67°08' E 013°59'0 0.0
2014-Jul-19 03:24N 67°08' E 013°59'0 0.0
2014-Jul-19 02:23N 67°08' E 013°59'0 0.0
2014-Jul-19 01:24N 67°08' E 013°59'0 0.0
2014-Jul-19 00:31N 67°08' E 013°59'0 0.0
2014-Jul-18 23:32N 67°08' E 013°59'0 0.0
2014-Jul-18 22:30N 67°08' E 013°59'0 0.0
2014-Jul-18 21:31N 67°08' E 013°59'0 0.0
2014-Jul-18 20:20N 67°08' E 013°59'0 0.0
2014-Jul-18 19:32N 67°08' E 013°59'2 1.5
2014-Jul-18 18:13N 67°06' E 013°58'0 0.5
2014-Jul-18 17:32N 67°07' E 013°59'1 0.4
2014-Jul-18 15:28N 67°06' E 013°59'0 0.1
2014-Jul-18 13:16N 67°06' E 013°59'3 3.4
2014-Jul-18 12:31N 67°08' E 013°59'0 0.0
2014-Jul-18 11:33N 67°08' E 013°59'2 1.2
2014-Jul-18 09:32N 67°06' E 013°59'2 2.5
2014-Jul-18 08:33N 67°08' E 013°59'2 0.8
2014-Jul-18 05:17N 67°06' E 013°59'2 3.0
2014-Jul-18 04:29N 67°08' E 013°59'0 0.0
2014-Jul-18 03:29N 67°08' E 013°59'0 0.0
2014-Jul-18 02:08N 67°08' E 013°59'0 0.0
2014-Jul-18 01:33N 67°08' E 013°59'0 0.0
2014-Jul-18 00:33N 67°08' E 013°59'0 0.0
2014-Jul-17 23:29N 67°08' E 013°59'0 0.0
2014-Jul-17 22:33N 67°08' E 013°59'0 0.0
2014-Jul-17 21:23N 67°08' E 013°59'0 0.0
2014-Jul-17 20:28N 67°08' E 013°59'0 0.0
2014-Jul-17 19:22N 67°08' E 013°59'2 1.5
2014-Jul-17 18:03N 67°06' E 013°58'0 0.7
2014-Jul-17 17:32N 67°07' E 013°59'1 0.8
2014-Jul-17 16:27N 67°06' E 013°59'2 2.5
2014-Jul-17 15:28N 67°08' E 013°59'3 1.5
2014-Jul-17 13:22N 67°05' E 014°00'3 2.5
2014-Jul-17 12:08N 67°08' E 013°59'0 0.0
2014-Jul-17 11:12N 67°08' E 013°59'2 1.0
2014-Jul-17 09:32N 67°06' E 013°58'2 1.7
2014-Jul-17 08:30N 67°08' E 013°59'3 0.8
2014-Jul-17 05:18N 67°06' E 013°59'3 3.5
2014-Jul-17 04:33N 67°08' E 013°59'0 0.0
2014-Jul-17 03:33N 67°08' E 013°59'0 0.0
2014-Jul-17 02:33N 67°08' E 013°59'0 0.0
2014-Jul-17 01:32N 67°08' E 013°59'0 0.0
2014-Jul-17 00:33N 67°08' E 013°59'0 0.0
2014-Jul-16 23:33N 67°08' E 013°59'0 0.0
2014-Jul-16 22:31N 67°08' E 013°59'0 0.0
2014-Jul-16 21:32N 67°08' E 013°59'0 0.0
2014-Jul-16 20:33N 67°08' E 013°59'0 0.0
2014-Jul-16 19:24N 67°08' E 013°59'2 1.5
2014-Jul-16 18:06N 67°06' E 013°58'  
Track history (hours):
 
Tides and Currents Weather Stations Pressure Air Temp Water Temp Dewpoint Dewpoint Depression Visibility Wind Speed Wind Dir Waves Ship Positions

Gildeskaal

Last reported at 2014-Jul-23 19:33 UTC. Time now 2014-Jul-23 19:46 UTC.
Position N 67°08' E 013°59'.

Length 52 m; draft 3.2 m.

Type: Ship. MMSI: 259680000.

Date/timePositionNaut miles runAvg speedWind from/ knotsBaromVisibWave heightAir tempDewpointWater temp
2014-Jul-23 19:33N 67°08' E 013°59'3 2.3
2014-Jul-23 18:12N 67°05' E 014°00'2 2.3
2014-Jul-23 17:31N 67°07' E 013°59'2 1.5
2014-Jul-23 16:31N 67°05' E 013°60'3 3.1
2014-Jul-23 15:33N 67°08' E 013°59'3 1.4
2014-Jul-23 13:22N 67°05' E 013°60'3 1.6
2014-Jul-23 11:29N 67°08' E 013°59'1 0.4
2014-Jul-23 09:33N 67°07' E 013°59'1 0.8
2014-Jul-23 08:33N 67°08' E 013°59'1 1.3
2014-Jul-23 07:33N 67°07' E 013°59'2 0.9
2014-Jul-23 05:28N 67°05' E 014°00'3 3.2
2014-Jul-23 04:31N 67°08' E 013°59'0 0.0
2014-Jul-23 03:33N 67°08' E 013°59'0 0.0
2014-Jul-23 02:33N 67°08' E 013°59'0 0.0
2014-Jul-23 01:33N 67°08' E 013°59'0 0.0
2014-Jul-23 00:33N 67°08' E 013°59'0 0.0
2014-Jul-22 23:30N 67°08' E 013°59'0 0.0
2014-Jul-22 22:33N 67°08' E 013°59'0 0.0
2014-Jul-22 21:33N 67°08' E 013°59'0 0.0
2014-Jul-22 20:33N 67°08' E 013°59'0 0.0
2014-Jul-22 19:26N 67°08' E 013°59'3 2.6
2014-Jul-22 18:15N 67°05' E 013°60'1 1.7
2014-Jul-22 17:33N 67°06' E 013°58'1 1.2
2014-Jul-22 16:32N 67°05' E 014°00'3 2.5
2014-Jul-22 15:17N 67°08' E 013°59'3 1.6
2014-Jul-22 13:23N 67°05' E 014°00'3 3.7
2014-Jul-22 12:33N 67°08' E 013°59'0 0.0
2014-Jul-22 11:33N 67°08' E 013°59'3 2.8
2014-Jul-22 10:30N 67°05' E 013°60'1 0.7
2014-Jul-22 09:33N 67°06' E 013°59'3 2.6
2014-Jul-22 08:33N 67°08' E 013°59'1 1.2
2014-Jul-22 07:33N 67°07' E 013°59'2 0.8
2014-Jul-22 05:22N 67°05' E 013°60'3 3.5
2014-Jul-22 04:29N 67°08' E 013°59'0 0.0
2014-Jul-22 03:31N 67°08' E 013°59'0 0.0
2014-Jul-22 02:31N 67°08' E 013°59'0 0.0
2014-Jul-22 01:33N 67°08' E 013°59'0 0.0
2014-Jul-22 00:33N 67°08' E 013°59'0 0.0
2014-Jul-21 23:33N 67°08' E 013°59'0 0.0
2014-Jul-21 22:33N 67°08' E 013°59'0 0.0
2014-Jul-21 21:33N 67°08' E 013°59'0 0.0
2014-Jul-21 20:33N 67°08' E 013°59'0 0.0
2014-Jul-21 20:18N 67°08' E 013°59'0 0.0
2014-Jul-21 19:33N 67°08' E 013°59'2 1.5
2014-Jul-21 18:10N 67°06' E 013°58'0 0.5
2014-Jul-21 17:32N 67°07' E 013°58'1 0.7
2014-Jul-21 16:27N 67°06' E 013°58'2 2.7
2014-Jul-21 15:33N 67°08' E 013°59'3 1.2
2014-Jul-21 13:07N 67°05' E 013°60'2 3.8
2014-Jul-21 12:33N 67°07' E 013°59'2 0.5
2014-Jul-21 09:32N 67°06' E 013°59'2 2.5
2014-Jul-21 08:32N 67°08' E 013°59'2 1.6
2014-Jul-21 07:30N 67°07' E 013°59'1 0.7
2014-Jul-21 05:24N 67°05' E 014°00'3 3.6
2014-Jul-21 04:33N 67°08' E 013°59'0 0.0
2014-Jul-21 03:32N 67°08' E 013°59'0 0.0
2014-Jul-21 02:25N 67°08' E 013°59'0 0.0
2014-Jul-21 01:30N 67°08' E 013°59'0 0.0
2014-Jul-21 00:33N 67°08' E 013°59'0 0.0
2014-Jul-20 23:27N 67°08' E 013°59'0 0.0
2014-Jul-20 22:28N 67°08' E 013°59'0 0.0
2014-Jul-20 21:09N 67°08' E 013°59'0 0.0
2014-Jul-20 20:31N 67°08' E 013°59'0 0.0
2014-Jul-20 19:32N 67°08' E 013°59'2 0.9
2014-Jul-20 17:10N 67°06' E 013°58'1 0.9
2014-Jul-20 16:32N 67°07' E 013°59'2 0.8
2014-Jul-20 14:33N 67°08' E 013°59'2 1.7
2014-Jul-20 13:33N 67°06' E 013°59'0 0.1
2014-Jul-20 08:05N 67°06' E 013°59'1 1.4
2014-Jul-20 07:32N 67°07' E 013°59'1 0.1
2014-Jul-19 17:26N 67°06' E 013°59'1 1.0
2014-Jul-19 16:30N 67°07' E 013°59'1 0.8
2014-Jul-19 15:27N 67°06' E 013°59'1 0.2
2014-Jul-19 09:23N 67°07' E 013°59'0 0.2
2014-Jul-19 07:33N 67°07' E 013°59'2 2.1
2014-Jul-19 06:28N 67°05' E 014°02'3 2.7
2014-Jul-19 05:10N 67°08' E 013°59'0 0.0
2014-Jul-19 04:22N 67°08' E 013°59'0 0.0
2014-Jul-19 03:24N 67°08' E 013°59'0 0.0
2014-Jul-19 02:23N 67°08' E 013°59'0 0.0
2014-Jul-19 01:24N 67°08' E 013°59'0 0.0
2014-Jul-19 00:31N 67°08' E 013°59'0 0.0
2014-Jul-18 23:32N 67°08' E 013°59'0 0.0
2014-Jul-18 22:30N 67°08' E 013°59'0 0.0
2014-Jul-18 21:31N 67°08' E 013°59'0 0.0
2014-Jul-18 20:20N 67°08' E 013°59'0 0.0
2014-Jul-18 19:32N 67°08' E 013°59'2 1.5
2014-Jul-18 18:13N 67°06' E 013°58'0 0.5
2014-Jul-18 17:32N 67°07' E 013°59'1 0.4
2014-Jul-18 15:28N 67°06' E 013°59'0 0.1
2014-Jul-18 13:16N 67°06' E 013°59'3 3.4
2014-Jul-18 12:31N 67°08' E 013°59'0 0.0
2014-Jul-18 11:33N 67°08' E 013°59'2 1.2
2014-Jul-18 09:32N 67°06' E 013°59'2 2.5
2014-Jul-18 08:33N 67°08' E 013°59'2 0.8
2014-Jul-18 05:17N 67°06' E 013°59'2 3.0
2014-Jul-18 04:29N 67°08' E 013°59'0 0.0
2014-Jul-18 03:29N 67°08' E 013°59'0 0.0
2014-Jul-18 02:08N 67°08' E 013°59'0 0.0
2014-Jul-18 01:33N 67°08' E 013°59'0 0.0
2014-Jul-18 00:33N 67°08' E 013°59'0 0.0
2014-Jul-17 23:29N 67°08' E 013°59'0 0.0
2014-Jul-17 22:33N 67°08' E 013°59'0 0.0
2014-Jul-17 21:23N 67°08' E 013°59'0 0.0
2014-Jul-17 20:28N 67°08' E 013°59'0 0.0
2014-Jul-17 19:22N 67°08' E 013°59'2 1.5
2014-Jul-17 18:03N 67°06' E 013°58'0 0.7
2014-Jul-17 17:32N 67°07' E 013°59'1 0.8
2014-Jul-17 16:27N 67°06' E 013°59'2 2.5
2014-Jul-17 15:28N 67°08' E 013°59'3 1.5
2014-Jul-17 13:22N 67°05' E 014°00'3 2.5
2014-Jul-17 12:08N 67°08' E 013°59'0 0.0
2014-Jul-17 11:12N 67°08' E 013°59'2 1.0
2014-Jul-17 09:32N 67°06' E 013°58'2 1.7
2014-Jul-17 08:30N 67°08' E 013°59'3 0.8
2014-Jul-17 05:18N 67°06' E 013°59'3 3.5
2014-Jul-17 04:33N 67°08' E 013°59'0 0.0
2014-Jul-17 03:33N 67°08' E 013°59'0 0.0
2014-Jul-17 02:33N 67°08' E 013°59'0 0.0
2014-Jul-17 01:32N 67°08' E 013°59'0 0.0
2014-Jul-17 00:33N 67°08' E 013°59'0 0.0
2014-Jul-16 23:33N 67°08' E 013°59'0 0.0
2014-Jul-16 22:31N 67°08' E 013°59'0 0.0
2014-Jul-16 21:32N 67°08' E 013°59'0 0.0
2014-Jul-16 20:33N 67°08' E 013°59'0 0.0
2014-Jul-16 19:24N 67°08' E 013°59'2 1.5
2014-Jul-16 18:06N 67°06' E 013°58'  

Dump ship's entire track history